• In Latvia
  • List of Countries
  • For 7 days
  • Water Temperature
  • Satellite Maps
  • Weather Map
  • Weather Widgets
  • user-avatar
    Login

    Hourly Weather Solden

    Today, 8 December, Thursday

    Time Temperature Precipitation Wind Pressure Humidity
    00:00 -9°C° 0 mm 0 mps 586 mmHg 52%
    01:00 -9°C° 0 mm 0 mps 586 mmHg 51%
    02:00 -9°C° 0 mm 0 mps 586 mmHg 51%
    03:00 -9°C° 0 mm 0 mps 586 mmHg 51%
    04:00 -9°C° 0 mm 0 mps 585 mmHg 51%
    05:00 -9°C° 0 mm 0 mps 585 mmHg 51%
    06:00 -9°C° 0 mm 0 mps 585 mmHg 51%
    07:00 -9°C° 0 mm 0 mps 585 mmHg 50%
    08:00 -7°C° 0 mm 0 mps 587 mmHg 50%
    09:00 -4°C° 0 mm 0 mps 588 mmHg 49%
    10:00 -2°C° 0 mm 0 mps 590 mmHg 49%
    11:00 -1°C° 0 mm 0 mps 590 mmHg 50%
    12:00 +1°C° 0 mm 1 mps 590 mmHg 52%
    13:00 +2°C° 0 mm 1 mps 591 mmHg 54%
    14:00 0°C° 0 mm 1 mps 589 mmHg 52%
    15:00 -3°C° 0 mm 0 mps 588 mmHg 51%
    16:00 -5°C° 0 mm 0 mps 587 mmHg 49%
    17:00 -6°C° 0 mm 0 mps 586 mmHg 50%
    18:00 -7°C° 0 mm 0 mps 586 mmHg 50%
    19:00 -8°C° 0 mm 0 mps 585 mmHg 51%
    20:00 -7°C° 0 mm 1 mps 586 mmHg 50%
    21:00 -7°C° 0 mm 1 mps 586 mmHg 49%
    22:00 -7°C° 0 mm 1 mps 586 mmHg 48%
    23:00 -7°C° 0 mm 1 mps 586 mmHg 49%

    Tomorrow, 9 December, Friday

    Time Temperature Precipitation Wind Pressure Humidity
    00:00 -7°C° 0 mm 1 mps 586 mmHg 49%
    01:00 -6°C° 0 mm 1 mps 586 mmHg 49%
    02:00 -7°C° 0 mm 1 mps 586 mmHg 50%
    03:00 -7°C° 0 mm 1 mps 586 mmHg 51%
    04:00 -7°C° 0 mm 1 mps 586 mmHg 52%
    05:00 -7°C° 0 mm 1 mps 586 mmHg 51%
    06:00 -8°C° 0 mm 2 mps 586 mmHg 51%
    07:00 -8°C° 0 mm 2 mps 586 mmHg 50%
    08:00 -4°C° 0 mm 1 mps 587 mmHg 51%
    09:00 -3°C° 0 mm 1 mps 588 mmHg 52%
    10:00 -1°C° 0 mm 1 mps 589 mmHg 53%
    11:00 0°C° 0 mm 1 mps 589 mmHg 55%
    12:00 +1°C° 0 mm 1 mps 589 mmHg 57%
    13:00 +2°C° 0 mm 1 mps 589 mmHg 59%
    14:00 +1°C° 0 mm 1 mps 588 mmHg 58%
    15:00 -1°C° 0 mm 1 mps 587 mmHg 56%
    16:00 -3°C° 0 mm 1 mps 586 mmHg 55%
    17:00 -3°C° 0 mm 1 mps 586 mmHg 55%
    18:00 -4°C° 0 mm 1 mps 586 mmHg 54%
    19:00 -4°C° 0 mm 1 mps 585 mmHg 54%
    20:00 -6°C° 0 mm 1 mps 585 mmHg 53%
    21:00 -6°C° 0 mm 1 mps 585 mmHg 51%
    22:00 -6°C° 0 mm 1 mps 585 mmHg 50%
    23:00 -6°C° 0 mm 1 mps 585 mmHg 49%

    Day after tomorrow, 10 December, Saturday

    Time Temperature Precipitation Wind Pressure Humidity
    00:00 -6°C° 0 mm 1 mps 584 mmHg 49%
    01:00 -6°C° 0 mm 1 mps 584 mmHg 48%
    02:00 -6°C° 0 mm 1 mps 584 mmHg 50%
    03:00 -6°C° 0 mm 1 mps 584 mmHg 51%
    04:00 -6°C° 0 mm 1 mps 583 mmHg 52%
    05:00 -6°C° 0 mm 1 mps 583 mmHg 53%
    06:00 -6°C° 0 mm 1 mps 583 mmHg 54%
    07:00 -6°C° 0 mm 1 mps 583 mmHg 54%
    08:00 -3°C° 0 mm 1 mps 584 mmHg 54%
    09:00 -1°C° 0 mm 1 mps 585 mmHg 54%
    10:00 0°C° 0 mm 1 mps 586 mmHg 54%
    11:00 +1°C° 0 mm 1 mps 587 mmHg 57%
    12:00 +2°C° 0 mm 1 mps 587 mmHg 59%
    13:00 +3°C° 0 mm 1 mps 587 mmHg 61%
    14:00 +1°C° 0 mm 1 mps 586 mmHg 60%
    15:00 -1°C° 0 mm 1 mps 585 mmHg 58%
    16:00 -3°C° 0 mm 1 mps 583 mmHg 57%
    17:00 -3°C° 0 mm 1 mps 583 mmHg 58%
    18:00 -4°C° 0 mm 1 mps 583 mmHg 59%
    19:00 -4°C° 0 mm 1 mps 582 mmHg 60%
    20:00 -6°C° 0 mm 1 mps 582 mmHg 59%
    21:00 -6°C° 0 mm 1 mps 582 mmHg 59%
    22:00 -6°C° 0 mm 1 mps 582 mmHg 58%
    23:00 -6°C° 0 mm 1 mps 581 mmHg 58%

    11 December, Sunday

    Time Temperature Precipitation Wind Pressure Humidity
    00:00 -6°C° 0 mm 1 mps 581 mmHg 58%
    01:00 -7°C° 0 mm 1 mps 580 mmHg 58%
    02:00 -7°C° 0 mm 1 mps 580 mmHg 58%
    03:00 -7°C° 0 mm 1 mps 580 mmHg 57%
    04:00 -7°C° 0 mm 1 mps 579 mmHg 57%
    05:00 -7°C° 0 mm 1 mps 579 mmHg 56%
    06:00 -7°C° 0 mm 1 mps 579 mmHg 55%
    07:00 -7°C° 0 mm 1 mps 579 mmHg 54%
    08:00 -4°C° 0 mm 1 mps 580 mmHg 54%
    09:00 -3°C° 0 mm 1 mps 581 mmHg 53%
    10:00 -1°C° 0 mm 1 mps 582 mmHg 52%
    11:00 0°C° 0 mm 1 mps 582 mmHg 55%
    12:00 +1°C° 0 mm 1 mps 583 mmHg 58%
    13:00 +2°C° 0 mm 1 mps 583 mmHg 61%
    14:00 0°C° 0 mm 1 mps 582 mmHg 64%
    15:00 -1°C° 0 mm 1 mps 581 mmHg 66%
    16:00 -5°C° 0 mm 2 mps 580 mmHg 69%
    17:00 -5°C° 0 mm 2 mps 580 mmHg 69%
    18:00 -5°C° 0 mm 2 mps 581 mmHg 69%
    19:00 -6°C° 0 mm 2 mps 581 mmHg 69%
    20:00 -6°C° 0 mm 2 mps 581 mmHg 71%
    21:00 -6°C° 0 mm 2 mps 581 mmHg 73%
    22:00 -6°C° 0 mm 2 mps 581 mmHg 75%
    23:00 -6°C° 0 mm 2 mps 581 mmHg 78%

    12 December, Monday

    Time Temperature Precipitation Wind Pressure Humidity
    00:00 -6°C° 0 mm 2 mps 581 mmHg 81%
    01:00 -6°C° 0 mm 2 mps 581 mmHg 84%
    02:00 -6°C° 0 mm 2 mps 581 mmHg 86%
    03:00 -6°C° 0 mm 2 mps 581 mmHg 87%
    04:00 -6°C° 0 mm 2 mps 581 mmHg 89%
    05:00 -6°C° 0 mm 2 mps 581 mmHg 89%
    06:00 -6°C° 0 mm 2 mps 581 mmHg 90%
    07:00 -6°C° 0 mm 2 mps 581 mmHg 90%
    08:00 -5°C° 0 mm 2 mps 582 mmHg 87%
    09:00 -5°C° 0 mm 2 mps 582 mmHg 85%
    10:00 -4°C° 0 mm 2 mps 583 mmHg 82%
    11:00 -3°C° 0 mm 2 mps 583 mmHg 80%
    12:00 -1°C° 0 mm 1 mps 583 mmHg 78%
    13:00 0°C° 0 mm 1 mps 583 mmHg 75%
    14:00 -1°C° 0 mm 1 mps 583 mmHg 79%
    15:00 -2°C° 0 mm 1 mps 582 mmHg 83%
    16:00 -4°C° 0 mm 1 mps 582 mmHg 87%
    17:00 -4°C° 0 mm 1 mps 582 mmHg 88%
    18:00 -6°C° 0 mm 1 mps 582 mmHg 88%
    19:00 -7°C° 0 mm 1 mps 581 mmHg 89%
    20:00 -8°C° 0 mm 1 mps 581 mmHg 89%
    21:00 -9°C° 0 mm 1 mps 581 mmHg 88%
    22:00 -9°C° 0 mm 0 mps 580 mmHg 88%
    23:00 -9°C° 0 mm 1 mps 581 mmHg 87%

    13 December, Tuesday

    Time Temperature Precipitation Wind Pressure Humidity
    00:00 -9°C° 0 mm 1 mps 581 mmHg 87%
    01:00 -9°C° 0 mm 1 mps 581 mmHg 86%
    02:00 -9°C° 0 mm 1 mps 581 mmHg 87%
    03:00 -9°C° 0 mm 1 mps 581 mmHg 87%
    04:00 -9°C° 0 mm 1 mps 581 mmHg 87%
    05:00 -9°C° 0 mm 1 mps 581 mmHg 88%
    06:00 -9°C° 0 mm 1 mps 581 mmHg 89%
    07:00 -9°C° 0 mm 1 mps 580 mmHg 90%
    08:00 -8°C° 0 mm 1 mps 582 mmHg 87%
    09:00 -6°C° 0 mm 1 mps 583 mmHg 84%
    10:00 -3°C° 0 mm 1 mps 584 mmHg 81%
    11:00 -2°C° 0 mm 1 mps 584 mmHg 80%
    12:00 -2°C° 0 mm 1 mps 584 mmHg 79%
    13:00 -1°C° 0 mm 1 mps 584 mmHg 78%
    14:00 -2°C° 0 mm 1 mps 584 mmHg 83%
    15:00 -3°C° 0 mm 1 mps 583 mmHg 87%
    16:00 -6°C° 0 mm 1 mps 582 mmHg 91%
    17:00 -6°C° 0 mm 1 mps 582 mmHg 92%
    18:00 -7°C° 0 mm 1 mps 582 mmHg 94%
    19:00 -8°C° 0 mm 1 mps 581 mmHg 95%
    20:00 -8°C° 0 mm 1 mps 581 mmHg 94%
    21:00 -8°C° 0 mm 1 mps 581 mmHg 94%
    22:00 -8°C° 0 mm 1 mps 581 mmHg 94%
    23:00 -8°C° 0 mm 1 mps 581 mmHg 93%
    Show more